Probability
0 0 0 0 0 0 0 0 0 0 3 3 3 3 6 3 3 3 10 13 19 26 32 32 39 35 29 42 35 42 42 26 29 19 39 45 42 55 61 61 68 74 65
0 0 0 0 0 0 0 0 0 0 0 3 3 3 6 3 3 6 10 13 19 23 26 29 35 45 32 35 35 39 42 23 23 26 29 39 42 55 58 52 58 58 55
0 0 0 0 0 0 0 0 0 0 0 3 6 3 3 3 3 3 6 13 19 19 26 19 23 32 32 26 32 32 32 32 26 23 32 35 42 39 45 45 48 58 52
0 0 0 0 0 0 3 3 0 0 3 6 6 6 6 6 3 3 10 13 16 10 13 16 16 19 13 16 19 29 23 32 32 23 19 29 26 39 39 35 42 52 48
0 0 0 0 0 0 3 0 3 0 6 6 3 3 10 10 6 0 6 10 13 19 19 10 13 13 19 19 23 29 19 19 19 23 26 23 29 29 35 39 32 42 52
0 0 0 0 0 0 0 0 0 0 3 3 0 0 6 6 6 0 3 10 13 6 16 10 16 10 16 23 26 19 19 19 23 23 23 19 23 29 32 29 29 35 48
0 0 0 0 0 0 0 0 0 0 0 3 3 0 3 0 0 10 3 19 10 13 13 13 10 13 13 16 13 19 16 13 19 19 16 19 26 26 26 32 32 42 35
0 0 0 0 0 0 0 0 3 3 0 0 3 0 0 0 3 0 6 13 10 10 6 6 10 13 16 19 10 16 19 19 19 19 19 16 16 16 26 32 35 26 32
0 0 0 0 0 0 0 0 0 3 3 0 0 3 3 0 0 6 0 10 13 10 6 10 10 13 10 16 16 3 6 16 19 16 16 16 13 16 23 26 29 29 32
0 0 0 0 0 0 0 0 0 0 3 3 3 0 0 3 3 0 3 6 10 10 10 6 13 16 13 16 10 0 0 0 16 16 10 16 16 13 16 19 23 23 29
0 0 0 0 0 0 3 3 3 3 0 0 6 3 3 0 0 0 3 3 6 13 10 6 13 13 16 19 23 6 0 0 3 19 13 13 13 10 13 13 13 19 23
0 0 0 0 0 0 0 3 3 3 0 0 0 0 0 0 3 0 3 3 3 3 6 13 16 16 16 16 3 0 0 0 3 3 13 13 10 10 13 13 13 16 13
0 0 0 0 0 0 0 0 3 3 0 0 0 0 0 0 0 3 3 3 0 0 3 13 6 10 10 13 3 0 0 0 0 0 0 3 6 6 10 6 6 13 13
0 0 0 0 0 0 0 0 0 0 0 0 0 0 0 0 0 3 3 3 0 0 0 0 6 6 6 6 0 0 0 0 0 0 0 0 0 0 3 6 3 10 10
0 0 0 0 0 0 0 0 0 0 0 0 0 0 0 0 0 0 3 0 0 0 0 0 3 0 3 3 0 0 0 0 0 0 0 0 0 0 0 3 3 3 6
0 0 0 0 0 0 0 0 0 0 0 0 3 0 0 0 0 0 0 0 0 3 0 0 0 3 3 0 0 0 0 0 0 0 0 0 0 0 0 0 0 0 0
0 0 0 0 0 3 3 3 0 0 0 0 0 0 0 0 0 0 0 0 0 0 0 0 0 3 3 0 0 0 0 0 0 0 0 0 0 0 0 0 0 0 0
0 0 0 0 0 0 0 3 3 3 3 3 0 0 0 0 0 0 0 3 0 0 0 0 0 0 0 3 3 3 0 0 0 0 0 0 0 0 0 0 0 0 0
0 0 0 0 0 0 0 0 0 3 3 0 0 0 0 0 0 0 0 0 0 0 0 0 0 0 0 0 0 0 0 0 0 0 0 0 0 0 0 0 0 0 0
0 0 0 0 0 0 0 0 0 0 0 0 0 0 0 0 0 3 0 0 0 0 0 0 0 0 0 0 0 0 0 0 0 0 0 0 0 0 0 0 0 0 0
0 0 0 0 0 0 0 0 0 0 0 0 0 0 0 0 0 0 0 0 0 6 3 3 0 0 0 0 0 0 0 0 0 0 0 0 0 0 0 0 0 0 0
0 0 0 0 0 0 0 0 0 0 0 0 0 0 0 0 0 0 0 0 0 0 0 0 0 0 0 0 0 0 0 0 0 0 0 0 0 0 0 0 0 0 0
0 0 0 0 0 0 0 0 0 0 0 0 0 0 0 0 0 0 0 0 0 0 0 0 0 0 0 0 0 0 0 0 0 0 0 0 0 0 0 0 0 0 0
0 0 0 0 0 0 0 0 0 0 0 0 0 0 0 0 0 0 0 0 0 0 0 0 0 0 0 0 0 0 0 0 0 0 0 0 0 0 0 0 0 0 0
0 0 0 0 0 0 0 0 0 0 0 0 0 0 0 0 0 0 0 0 0 0 0 0 0 0 0 0 0 0 0 0 0 0 0 0 0 0 0 0 0 0 0
0 0 0 0 0 0 0 0 0 0 0 0 0 0 0 0 0 0 0 0 0 0 0 0 0 0 0 0 0 0 0 0 0 0 0 0 0 0 0 0 0 0 0
Height
5875 5873 5871 5869 5867 5865 5863 5861 5860 5858 5858 5857 5857 5857 5858 5858 5858 5859 5860 5860 5861 5862 5863 5864 5866 5867 5869 5870 5872 5873 5875 5877 5879 5881 5883 5885 5887 5888 5890 5891 5893 5896 5899
5873 5872 5870 5868 5865 5863 5861 5859 5858 5856 5855 5855 5855 5855 5855 5856 5856 5857 5857 5858 5859 5860 5861 5862 5864 5865 5867 5868 5870 5872 5873 5875 5877 5879 5881 5883 5885 5886 5888 5889 5891 5894 5897
5873 5871 5869 5866 5864 5862 5859 5857 5856 5854 5853 5853 5853 5853 5853 5853 5854 5854 5855 5856 5857 5858 5859 5860 5862 5863 5865 5866 5868 5870 5871 5873 5875 5876 5878 5880 5883 5884 5886 5888 5890 5893 5895
5872 5870 5868 5865 5863 5860 5858 5856 5854 5853 5852 5851 5851 5850 5851 5851 5851 5852 5853 5854 5855 5856 5857 5858 5860 5861 5863 5864 5866 5868 5869 5871 5873 5874 5876 5878 5880 5882 5883 5886 5888 5891 5893
5871 5869 5867 5864 5862 5859 5857 5855 5853 5851 5850 5849 5849 5848 5848 5849 5849 5850 5850 5851 5852 5853 5854 5856 5857 5859 5860 5862 5864 5865 5867 5868 5870 5872 5873 5875 5877 5879 5880 5883 5886 5889 5891
5870 5868 5866 5864 5861 5859 5856 5854 5852 5850 5849 5848 5847 5847 5846 5846 5847 5847 5848 5849 5850 5851 5852 5853 5855 5856 5858 5860 5861 5863 5864 5866 5867 5868 5870 5872 5873 5875 5877 5879 5883 5886 5889
5870 5868 5865 5863 5861 5858 5856 5853 5851 5850 5848 5847 5846 5845 5845 5844 5845 5845 5846 5847 5848 5849 5850 5851 5853 5854 5855 5857 5858 5860 5861 5862 5864 5865 5867 5868 5869 5870 5872 5875 5879 5882 5886
5869 5867 5865 5863 5860 5858 5855 5853 5851 5849 5847 5846 5845 5844 5844 5844 5843 5844 5844 5845 5846 5847 5848 5849 5851 5852 5853 5855 5856 5857 5858 5859 5861 5862 5864 5865 5865 5865 5866 5870 5875 5879 5883
5869 5867 5865 5862 5860 5858 5855 5853 5851 5849 5847 5846 5844 5844 5843 5842 5842 5843 5843 5844 5845 5846 5847 5848 5849 5850 5851 5852 5854 5855 5856 5857 5858 5860 5861 5862 5863 5862 5864 5868 5872 5876 5879
5869 5867 5864 5862 5860 5857 5855 5853 5851 5849 5847 5845 5844 5843 5842 5841 5841 5842 5842 5843 5843 5844 5845 5846 5847 5848 5849 5850 5851 5852 5853 5854 5856 5857 5859 5860 5861 5862 5863 5866 5869 5873 5876
5868 5866 5864 5862 5860 5857 5855 5853 5850 5849 5847 5845 5844 5843 5842 5841 5841 5841 5841 5842 5842 5842 5843 5844 5845 5846 5847 5847 5849 5849 5851 5852 5853 5854 5856 5858 5859 5860 5862 5864 5867 5869 5872
5867 5865 5863 5861 5859 5857 5855 5853 5850 5848 5847 5845 5844 5843 5842 5841 5840 5840 5840 5840 5840 5841 5841 5842 5843 5843 5844 5845 5846 5847 5848 5849 5851 5852 5853 5855 5856 5858 5860 5861 5864 5866 5868
5866 5865 5863 5861 5859 5857 5855 5852 5850 5848 5847 5845 5844 5842 5841 5840 5840 5839 5839 5839 5839 5839 5839 5839 5840 5841 5842 5842 5843 5844 5845 5846 5848 5849 5850 5852 5853 5855 5856 5858 5860 5862 5864
5865 5864 5862 5860 5858 5856 5854 5852 5850 5848 5847 5845 5843 5842 5841 5840 5839 5838 5838 5838 5837 5837 5837 5837 5838 5838 5839 5839 5840 5841 5842 5843 5844 5845 5847 5848 5849 5851 5852 5854 5855 5857 5859
5864 5863 5861 5859 5858 5856 5854 5852 5850 5848 5846 5844 5843 5842 5840 5839 5838 5837 5836 5836 5836 5836 5836 5835 5835 5836 5836 5837 5837 5838 5839 5839 5840 5841 5842 5843 5845 5846 5848 5849 5850 5852 5853
5863 5862 5860 5858 5857 5855 5853 5851 5849 5847 5845 5844 5842 5841 5839 5838 5837 5836 5835 5834 5833 5833 5833 5833 5833 5833 5833 5833 5834 5834 5835 5836 5836 5837 5838 5839 5840 5841 5843 5844 5845 5846 5847
5862 5860 5858 5857 5855 5853 5851 5850 5848 5846 5844 5842 5841 5839 5838 5837 5835 5834 5833 5832 5831 5831 5830 5830 5830 5830 5830 5830 5830 5830 5831 5831 5832 5833 5833 5834 5835 5836 5837 5838 5839 5840 5842
5860 5858 5856 5855 5853 5851 5849 5848 5846 5844 5842 5841 5839 5837 5836 5834 5833 5832 5831 5830 5829 5828 5827 5827 5826 5826 5826 5826 5826 5826 5826 5826 5827 5827 5827 5828 5829 5830 5831 5832 5833 5834 5835
5857 5855 5854 5852 5851 5849 5847 5845 5843 5842 5840 5838 5836 5835 5833 5832 5830 5829 5827 5826 5825 5824 5823 5823 5822 5822 5821 5821 5821 5821 5821 5821 5821 5821 5821 5822 5822 5823 5824 5825 5826 5827 5828
5854 5852 5851 5849 5847 5846 5844 5842 5840 5838 5836 5834 5833 5831 5829 5828 5826 5824 5823 5822 5820 5819 5818 5818 5817 5816 5816 5815 5815 5815 5815 5815 5815 5814 5814 5815 5815 5816 5817 5818 5819 5819 5821
5850 5848 5847 5845 5843 5842 5840 5838 5836 5834 5832 5830 5828 5826 5825 5823 5821 5819 5818 5816 5815 5813 5812 5811 5810 5810 5809 5809 5808 5808 5808 5808 5807 5807 5807 5807 5807 5808 5808 5809 5810 5811 5812
5846 5844 5842 5840 5839 5837 5835 5833 5831 5829 5827 5825 5823 5821 5819 5817 5815 5813 5812 5810 5808 5807 5805 5804 5803 5802 5801 5801 5800 5800 5800 5800 5800 5799 5798 5799 5799 5799 5800 5801 5801 5802 5804
5841 5839 5837 5835 5833 5831 5829 5827 5825 5823 5821 5819 5816 5814 5812 5810 5809 5807 5805 5804 5802 5800 5798 5797 5795 5794 5793 5792 5791 5791 5790 5790 5790 5790 5789 5789 5789 5790 5790 5791 5792 5793 5794
5835 5833 5831 5828 5826 5824 5822 5820 5818 5816 5814 5811 5809 5807 5805 5803 5801 5799 5798 5796 5794 5792 5790 5788 5787 5785 5784 5783 5781 5781 5780 5780 5780 5780 5779 5780 5780 5780 5780 5781 5782 5783 5784
5828 5825 5823 5821 5819 5817 5815 5812 5810 5808 5806 5803 5801 5799 5797 5795 5793 5791 5789 5787 5785 5783 5781 5779 5777 5775 5773 5772 5771 5770 5770 5769 5770 5770 5769 5769 5769 5769 5770 5771 5771 5772 5773
5820 5818 5816 5813 5811 5809 5806 5804 5801 5799 5797 5794 5792 5790 5788 5786 5783 5781 5779 5777 5775 5773 5771 5769 5766 5764 5762 5761 5760 5759 5758 5758 5758 5759 5758 5758 5758 5758 5759 5760 5760 5760 5761
Wind_Speed
10 10 10 10 10 10 10 10 9 9 8 9 10 10 9 9 9 9 9 10 10 11 12 13 14 14 15 14 15 15 15 16 17 17 18 18 18 18 18 18 19 20 20
10 10 11 11 11 11 11 10 9 9 8 9 9 9 9 10 10 10 10 10 10 11 13 13 13 14 15 15 15 16 16 16 16 18 19 18 18 19 19 19 20 20 20
10 11 11 11 11 11 11 10 9 8 8 8 8 9 9 10 11 11 11 11 11 12 13 13 14 14 15 15 15 15 15 16 17 18 19 19 19 19 20 20 20 19 20
10 11 11 11 11 11 11 10 9 8 7 7 7 8 9 9 11 11 11 12 12 12 12 13 14 14 16 16 16 16 15 17 18 18 19 19 20 19 19 20 20 20 20
10 11 11 11 11 11 10 10 9 7 7 6 7 7 8 8 9 10 11 12 13 13 12 12 14 15 16 16 16 16 17 17 18 18 20 19 20 20 20 21 21 20 21
10 10 11 11 11 11 10 9 9 8 7 6 6 6 7 8 8 9 10 12 13 13 12 13 13 15 16 16 16 17 17 18 18 18 19 19 20 20 21 22 23 22 22
10 10 10 11 11 11 10 10 9 8 7 6 6 6 6 6 8 8 9 11 12 12 13 13 14 15 15 15 16 16 17 17 18 18 18 19 20 21 23 24 24 24 24
10 10 10 11 11 10 10 10 9 8 7 6 5 5 5 5 6 7 8 9 11 12 13 13 13 14 15 15 16 16 17 16 16 17 18 19 19 20 23 24 25 25 24
9 10 10 10 11 11 10 10 10 9 8 7 6 5 4 4 5 6 7 8 9 11 12 13 13 13 14 15 15 16 17 16 16 17 18 18 18 18 21 23 24 24 24
9 10 10 10 10 11 10 10 10 9 8 7 6 5 4 3 3 5 6 7 9 10 11 12 13 13 14 14 15 16 16 17 17 17 17 18 18 19 21 23 23 24 24
9 9 10 10 11 11 10 10 10 9 8 7 6 5 4 3 3 4 5 7 8 10 11 12 13 14 14 14 14 15 16 17 17 17 17 17 18 19 21 23 23 24 24
8 9 9 10 10 11 11 10 10 9 8 8 7 6 4 4 3 4 5 6 8 9 11 12 13 14 14 14 15 15 16 17 18 18 18 18 18 19 20 22 24 25 25
8 8 9 9 10 10 11 10 10 9 9 8 7 6 5 5 4 4 5 6 7 9 10 12 13 14 14 14 15 16 17 17 19 19 19 19 20 20 21 22 24 25 26
8 8 9 9 9 10 10 10 10 9 9 8 8 7 6 6 6 6 6 7 7 8 9 11 13 14 15 15 15 16 18 18 19 20 21 21 21 21 22 22 24 26 27
7 8 9 9 9 10 10 10 10 9 9 9 8 8 7 7 7 7 7 8 8 9 10 10 12 13 14 15 15 16 17 18 18 20 21 22 22 23 23 24 24 25 27
8 9 10 10 10 10 10 10 10 9 9 9 9 9 8 8 8 8 8 8 9 9 10 11 12 14 15 15 16 17 18 19 20 20 21 22 23 24 25 25 26 27 28
10 10 11 11 11 11 11 11 11 11 10 10 10 10 10 10 10 9 9 10 10 10 11 12 13 14 15 16 17 18 19 20 21 22 22 23 23 24 26 26 27 28 28
11 11 12 12 12 12 12 12 12 12 12 12 12 11 11 11 12 12 12 12 12 12 13 13 14 15 16 17 18 19 20 21 22 23 24 25 25 25 26 27 28 28 29
13 13 13 13 13 13 14 14 14 14 14 14 14 14 14 14 14 14 14 14 14 15 15 16 16 17 18 19 20 20 20 21 22 23 24 26 26 27 27 27 28 29 30
14 14 15 15 15 15 15 15 16 16 16 16 16 16 16 17 17 17 17 17 17 17 18 18 19 19 20 21 22 22 22 23 24 24 25 26 27 28 28 28 29 30 31
15 16 16 17 17 17 17 17 17 18 18 19 19 19 19 19 19 19 19 19 20 20 20 21 22 22 22 23 24 25 25 25 26 26 27 27 28 29 30 30 30 31 31
18 18 18 19 19 20 20 20 21 21 21 21 22 22 22 22 22 21 21 21 22 22 23 23 24 24 25 26 26 27 28 28 28 28 29 29 30 31 31 32 32 32 32
20 20 21 21 22 22 23 23 24 24 24 24 24 24 24 24 24 24 24 24 24 24 25 26 26 27 27 28 28 29 29 30 30 30 30 30 31 32 32 32 33 33 34
22 23 24 24 24 24 25 25 26 26 26 26 26 26 26 27 27 27 27 26 27 27 28 28 29 29 30 30 30 30 31 31 32 32 32 32 32 32 32 33 34 34 35
25 25 26 26 26 27 27 27 28 28 29 29 29 29 29 29 30 30 30 30 30 30 31 31 32 32 32 32 33 33 33 33 33 34 34 33 33 34 34 34 36 37 37
27 28 28 28 28 29 30 30 31 31 31 32 32 32 33 33 33 33 34 34 34 34 34 34 34 35 35 35 36 36 36 36 36 35 36 36 36 36 36 36 37 38 40
Wind_Direction
340 338 338 334 331 327 324 317 308 298 285 277 272 267 261 251 247 240 235 231 230 226 225 222 219 218 216 215 215 212 212 210 208 207 208 208 209 209 208 206 204 203 203
345 343 340 337 334 331 327 321 313 305 292 281 275 268 262 252 247 240 236 233 229 225 224 222 220 220 218 216 216 216 215 211 212 209 208 210 211 211 211 209 204 204 206
347 344 342 341 338 336 332 327 320 312 298 284 275 267 263 254 249 241 237 233 230 226 224 222 221 219 218 217 215 217 217 214 212 209 210 214 214 214 213 211 209 207 210
345 344 345 345 343 340 338 334 327 317 304 289 278 271 265 257 252 245 239 233 230 227 224 222 221 219 220 219 218 218 220 217 215 214 215 216 216 216 213 212 212 211 211
344 345 346 346 346 345 343 340 334 327 315 301 287 276 268 259 252 245 240 236 231 228 225 223 223 222 222 223 222 220 222 222 221 221 219 218 218 220 217 213 215 214 216
347 349 349 348 349 349 348 347 343 335 326 314 300 286 274 262 252 245 240 233 229 228 226 224 224 224 224 224 224 224 224 225 225 224 223 222 222 223 220 215 215 215 216
353 352 352 352 353 353 353 353 350 345 336 326 316 304 288 267 254 246 242 234 228 226 226 224 225 225 228 229 229 229 226 228 227 225 225 225 224 224 220 217 216 216 217
357 356 354 356 358 358 359 357 354 351 346 339 329 319 302 276 256 245 241 236 231 226 225 224 225 228 230 232 234 233 229 228 229 228 226 227 225 223 219 217 217 216 218
357 359 1 1 1 2 0 359 359 356 350 347 341 334 319 291 261 246 240 235 234 231 230 228 229 231 232 235 234 233 232 229 230 229 227 226 224 222 218 217 218 219 219
354 357 0 3 3 3 3 3 2 359 356 353 347 339 329 308 273 250 242 240 238 237 236 235 234 236 238 237 236 236 236 234 232 230 228 227 224 223 220 219 220 222 223
350 354 358 2 4 4 4 3 2 1 359 357 355 350 340 323 293 267 252 247 243 241 241 240 240 240 242 241 240 241 240 239 235 231 228 229 228 225 224 224 223 223 226
349 352 355 358 1 3 4 2 2 1 1 359 357 354 345 330 310 288 267 255 251 248 247 244 244 245 246 243 242 245 245 243 240 236 233 234 234 232 228 228 228 228 230
347 349 352 355 358 1 3 3 3 2 0 358 356 355 349 337 323 308 289 273 264 258 254 249 246 247 247 246 245 244 245 245 242 238 237 239 239 239 235 233 232 232 234
342 343 346 350 354 356 359 359 358 358 357 355 353 351 346 339 327 314 299 285 276 265 261 255 250 251 251 251 250 246 244 246 244 241 242 243 243 243 242 240 239 236 237
337 340 342 344 348 350 351 352 353 351 350 349 347 343 337 331 323 315 305 294 284 274 266 261 255 256 255 253 252 248 246 246 247 246 245 244 245 245 246 246 245 243 241
331 333 334 336 338 340 342 342 342 344 343 340 338 335 328 322 317 314 305 297 291 282 276 268 261 261 261 261 258 253 252 251 250 249 248 247 246 246 247 248 247 247 246
323 325 326 327 329 330 330 331 331 332 332 332 330 328 323 318 313 310 304 296 292 286 282 277 271 266 263 263 262 258 257 256 254 251 250 248 248 248 249 249 248 249 248
314 317 319 319 320 321 322 322 322 321 322 321 319 318 316 313 309 305 302 295 290 287 284 281 277 272 268 266 265 264 263 262 260 256 256 255 254 254 252 250 250 250 249
309 311 313 314 314 315 315 314 311 311 313 314 312 310 308 307 305 302 299 296 291 287 285 282 279 276 273 271 269 268 267 266 265 261 260 259 258 258 257 255 253 251 250
305 307 308 311 311 311 310 309 307 306 307 307 306 304 303 303 301 299 296 294 291 288 286 283 280 278 275 273 272 270 269 269 269 266 263 261 260 260 259 259 257 253 252
301 303 304 305 306 306 306 306 305 304 303 302 301 300 299 298 298 297 294 292 290 287 285 283 281 279 277 275 273 272 270 270 270 267 265 262 260 260 260 260 259 256 254
297 299 300 300 301 302 302 302 301 301 300 300 299 296 295 294 294 293 291 290 289 288 286 283 282 280 278 276 275 273 271 270 270 268 267 264 262 261 261 260 260 258 256
296 297 298 298 298 300 300 300 299 299 299 298 298 296 293 292 291 291 290 290 289 288 286 284 282 281 279 277 276 274 273 272 270 269 268 266 264 262 261 260 260 259 257
295 296 297 297 297 297 297 297 297 297 297 296 295 294 293 291 289 289 288 288 288 288 287 285 284 282 281 279 276 274 273 273 272 271 270 268 266 264 263 261 261 261 259
294 296 296 295 296 296 295 294 294 294 294 294 293 292 292 291 289 288 287 287 287 286 286 286 285 283 281 279 277 275 273 272 271 271 270 269 268 267 265 264 263 262 261
293 294 295 294 294 294 294 294 294 294 293 292 291 291 291 290 289 288 287 287 286 286 285 284 284 282 281 279 278 276 274 272 270 269 269 269 269 268 267 266 265 264 263